sat.trackr.live / text

‹ back to catalog

STARLINK-30243

NORAD 57648 · 2023-122S

PAYLOAD ACTIVE UNKNOWN

§ Identity

Operator
Country
US
Launch date
2023-08-17
Launch site
AFETR
Launch vehicle
Mass (kg)
RCS (m²)

Purposes: comms

External: N2YO · Heavens-Above · Gunter

§ Orbital elements

Epoch: 2026-09-19T20:58:34.076928Z

Period
94.27 min
Inclination
43.0059°
Eccentricity
0.0001814
Mean motion
15.27578391 rev/d
Perigee alt
481.8 km
Apogee alt
484.3 km
Semi-major
6,861.2 km
B*
2.1023e-5
RAAN
75.9618°
Arg perigee
275.6638°
Mean anomaly
84.4007°
Rev number
17,190

§ Raw data

STARLINK-302431 57648U 23122S   26262.87400552  .00000316  00000+0  21023-4 0  99902 57648  43.0059  75.9618 0001814 275.6638  84.4007 15.27578391171909

JSON: /api/v1/satellites/57648 · /tle

For live sub-satellite position, see the globe view (requires WebGL).

§ Visibility from observer

Set your observer location to see the next 7 days of passes ≥ 10°. The values pass through the URL so the page stays shareable.

No JS? Fill the form by hand. The geolocation button needs JavaScript.